Longview, TX

7:51 AM CST on December 11, 2017 (GMT -0600)
Gregg County

Weather History for KGGG - March, 2013

Change the Weather History Date:

Monday, March 4, 2013

  Actual Average Record
Temperature  
Mean Temperature 65 °F 55 °F  
Max Temperature 78 °F 66 °F 82 °F (1974)
Min Temperature 52 °F 43 °F 17 °F (2002)
Degree Days  
Heating Degree Days 0 11  
Month to date heating degree days 61 45  
Since 1 July heating degree days 1651 1949  
Cooling Degree Days 0 1  
Month to date cooling degree days 0 4  
Year to date cooling degree days 8 16  
Growing Degree Days 14 (Base 50)    
Moisture  
Dew Point 50 °F    
Average Humidity 60    
Maximum Humidity 83    
Minimum Humidity 36    
Precipitation  
Precipitation 0.00 in 0.14 in 2.30 in (1964)
Month to date precipitation 0.00 0.54  
Year to date precipitation 8.14 7.90  
Snow  
Snow 0.00 in - - ()
Month to date snowfall 0.0  
Since 1 July snowfall 0.8  
Snow Depth 0.00 in    
Sea Level Pressure  
Sea Level Pressure 29.77 in    
Wind  
Wind Speed 17 mph (SSW)    
Max Wind Speed 25 mph    
Max Gust Speed 40 mph    
Visibility 10 miles    
Events      
T = Trace of Precipitation, MM = Missing Value Source: NWS Daily Summary

Daily Weather History Graph

Daily Weather History Graph

Search for Another Location

Airport or City:

Trip Planner

Search our weather history database for the weather conditions in past years. The results will help you decide how hot, cold, wet, or windy it might be!

Date:

Astronomy

Mar. 04, 2013 Rise Set
Actual Time 6:42 AM CST 6:18 PM CST
Civil Twilight 6:17 AM CST 6:43 PM CST
Nautical Twilight 5:49 AM CST 7:11 PM CST
Astronomical Twilight 5:21 AM CST 7:40 PM CST
Moon 12:39 AM CST (3/4) 11:15 AM CST (3/4)
Length of Visible Light 12h 25m
Length of Day
11h 36m
Waning Gibbous, 52% of the Moon is Illuminated
Mar 4
Waning Gibbous
Mar 4
Last Quarter
Mar 11
New
Mar 19
First Quarter
Mar 27
Full

Hourly Weather History & Observations

Time (CST) Temp. Dew Point Humidity Pressure Visibility Wind Dir Wind Speed Gust Speed Precip Events Conditions
12:53 AM 53.1 °F 39.9 °F 61% 29.92 in 10.0 mi South 16.1 mph - N/A   Clear
1:53 AM 53.1 °F 43.0 °F 69% 29.90 in 10.0 mi South 19.6 mph 25.3 mph N/A   Clear
2:53 AM 52.0 °F 44.1 °F 74% 29.87 in 10.0 mi South 11.5 mph 21.9 mph N/A   Clear
3:53 AM 53.1 °F 46.0 °F 77% 29.84 in 10.0 mi South 16.1 mph - N/A   Clear
4:53 AM 54.0 °F 46.9 °F 77% 29.82 in 10.0 mi South 17.3 mph 29.9 mph N/A   Clear
5:53 AM 54.0 °F 48.0 °F 80% 29.82 in 10.0 mi South 20.7 mph 25.3 mph N/A   Clear
6:09 AM 53.6 °F 48.2 °F 82% 29.82 in 10.0 mi South 18.4 mph 26.5 mph N/A   Mostly Cloudy
6:53 AM 55.0 °F 48.0 °F 77% 29.82 in 10.0 mi South 17.3 mph 26.5 mph N/A   Partly Cloudy
7:53 AM 57.0 °F 48.9 °F 74% 29.82 in 10.0 mi South 21.9 mph 28.8 mph N/A   Scattered Clouds
8:15 AM 57.2 °F 50.0 °F 77% 29.83 in 10.0 mi SSW 17.3 mph 26.5 mph N/A   Mostly Cloudy
8:53 AM 60.1 °F 51.1 °F 72% 29.81 in 10.0 mi SSW 18.4 mph 33.4 mph N/A   Mostly Cloudy
9:49 AM 62.6 °F 51.8 °F 68% 29.79 in 10.0 mi SSW 24.2 mph 31.1 mph N/A   Scattered Clouds
9:53 AM 62.1 °F 51.1 °F 67% 29.79 in 10.0 mi SSW 20.7 mph 31.1 mph N/A   Scattered Clouds
10:53 AM 69.1 °F 52.0 °F 54% 29.76 in 10.0 mi SSW 25.3 mph 36.8 mph N/A   Clear
11:53 AM 73.0 °F 52.0 °F 48% 29.75 in 10.0 mi SSW 20.7 mph 35.7 mph N/A   Clear
12:53 PM 77.0 °F 51.1 °F 40% 29.71 in 10.0 mi SSW 19.6 mph 33.4 mph N/A   Clear
1:53 PM 75.9 °F 50.0 °F 40% 29.68 in 10.0 mi SSW 20.7 mph 31.1 mph N/A   Clear
2:53 PM 77.0 °F 48.9 °F 37% 29.67 in 10.0 mi SSW 21.9 mph 31.1 mph N/A   Clear
3:53 PM 77.0 °F 50.0 °F 39% 29.67 in 10.0 mi SSW 16.1 mph 24.2 mph N/A   Clear
4:53 PM 75.9 °F 52.0 °F 43% 29.67 in 10.0 mi SSW 15.0 mph - N/A   Clear
5:53 PM 73.9 °F 53.1 °F 48% 29.68 in 10.0 mi SSW 10.4 mph - N/A   Clear
6:53 PM 70.0 °F 53.1 °F 55% 29.69 in 10.0 mi South 9.2 mph - N/A   Clear
7:53 PM 69.1 °F 53.1 °F 57% 29.69 in 10.0 mi South 10.4 mph - N/A   Clear
8:53 PM 69.1 °F 53.1 °F 57% 29.70 in 10.0 mi South 15.0 mph - N/A   Clear
9:53 PM 68.0 °F 55.0 °F 63% 29.71 in 10.0 mi South 20.7 mph - N/A   Clear
10:53 PM 66.0 °F 55.9 °F 70% 29.72 in 10.0 mi South 17.3 mph - N/A   Clear
11:53 PM 64.9 °F 57.0 °F 75% 29.71 in 10.0 mi South 16.1 mph - N/A   Clear